User: anonymous   Login
Location: Pilipovskiye Korichintsy
(49.1833°N, 27.4667°E)
Time: 00:46:27
(UTC+00:00)
Language:

Cosmos 1733 Rocket - Orbit

View from above orbital plane
View from above orbital plane
View from above satellite
View from above satellite

Ground track
Ground track

The orbit data is extracted from the following two-line orbital elements,

1 16612U 86018B   20273.47075498 +.00000090 +00000-0 +78627-5 0  9991
2 16612 082.5149 250.2013 0018473 146.9118 335.7640 14.84270210748391
Epoch (UTC): 29 September 2020 11:17:53
Eccentricity: 0.0018473
inclination: 82.5149°
perigee height: 603 km
apogee height: 629 km
right ascension of ascending node: 250.2013°
argument of perigee: 146.9118°
revolutions per day: 14.84270210
mean anomaly at epoch: 335.7640°
orbit number at epoch: 74839

The dashed part of the orbit path shows where the satellite is in the earth's shadow,  

DLR